Location: Black Swamp Observatory
(41.3920°N, 84.1250°W)
Time: 02:19:04
(UTC-05:00)

BlueWalker 3 - Pass Details

Date: 05 December 2022
Orbit: 499 x 517 km, 53.2° (Epoch: 02 February)

Event Time Altitude Azimuth Distance (km) Brightness Sun altitude
Rises 18:05:56 0° 308° (NW) 2,628 6.1 -10.8°
Reaches altitude 10° 18:08:49 10° 330° (NNW) 1,736 4.8 -11.3°
Maximum altitude 18:11:21 16° 11° (N) 1,383 3.9 -11.8°
Enters shadow 18:12:48 14° 36° (NE) 1,505 3.9 -12.0°
